EW1675 Weather Reports


time (UTC)temp
F
wind
direction
speed
knots
gust
knots
rain 1hr
in
rain 24hr
in
rain mn
in
humidity
%
barometer
mb
20260509160003 70 166 0.9 5.2 0.00 0.00 0.00 59 1010.4
20260509155023 70 141 0.9 7.0 0.00 0.00 0.00 60 1010.5
20260509154004 69 166 0.9 7.0 0.00 0.00 0.00 61 1010.6
20260509153025 69 160 0.9 5.2 0.00 0.00 0.00 61 1010.7
20260509152044 69 155 1.7 6.1 0.00 0.00 0.00 58 1010.7
20260509151003 69 154 0.9 10.4 0.00 0.00 0.00 61 1010.6
20260509150002 68 153 1.7 7.0 0.00 0.00 0.00 60 1011.0
20260509145003 67 151 1.7 6.1 0.00 0.00 0.00 63 1011.1
20260509144024 66 141 0.9 6.1 0.00 0.00 0.00 62 1011.3
20260509143045 65 133 1.7 6.1 0.00 0.00 0.00 64 1011.3
20260509142002 64 166 0.9 5.2 0.00 0.00 0.00 66 1011.4
20260509141024 62 146 0.9 4.3 0.00 0.00 0.00 69 1011.5
20260509140003 61 157 0.9 2.6 0.00 0.00 0.00 68 1011.5
20260509135003 60 179 0.9 3.5 0.00 0.00 0.00 68 1011.4
20260509134025 60 206 0.0 1.7 0.00 0.00 0.00 69 1011.4
20260509133004 59 198 0.0 2.6 0.00 0.00 0.00 70 1011.6
20260509132003 59 202 0.0 3.5 0.00 0.00 0.00 69 1011.6
20260509131003 59 167 0.9 4.3 0.00 0.00 0.00 70 1011.5
20260509130003 59 161 0.9 5.2 0.00 0.00 0.00 69 1011.5
20260509125003 59 160 0.9 7.0 0.00 0.00 0.00 69 1011.5
20260509124024 58 156 0.9 3.5 0.00 0.00 0.00 69 1011.5
20260509123106 58 178 0.9 4.3 0.00 0.00 0.00 68 1011.6
20260509122003 58 143 0.9 5.2 0.00 0.00 0.00 67 1011.5
20260509121048 58 123 0.9 3.5 0.00 0.00 0.00 66 1011.6
20260509120024 58 171 0.0 1.7 0.00 0.00 0.00 65 1011.6
20260509115024 58 171 0.0 1.7 0.00 0.00 0.00 65 1011.5
20260509114003 58 171 0.0 3.5 0.00 0.00 0.00 64 1011.4
20260509113046 58 160 0.9 3.5 0.00 0.00 0.00 64 1011.5
20260509112004 58 163 0.9 1.7 0.00 0.00 0.00 64 1011.4
20260509111024 58 201 0.0 2.6 0.00 0.00 0.00 64 1011.3
20260509110045 57 199 0.0 2.6 0.00 0.00 0.00 63 1011.4
20260509105025 57 179 0.0 1.7 0.00 0.00 0.00 63 1011.2
20260509104024 57 179 0.0 2.6 0.00 0.00 0.00 62 1011.2
20260509103001 57 181 0.0 1.7 0.00 0.00 0.00 62 1011.2
20260509102001 57 184 0.0 0.9 0.00 0.00 0.00 62 1011.2
20260509101043 57 172 0.0 3.5 0.00 0.00 0.00 61 1010.9
20260509100001 58 160 0.0 1.7 0.00 0.00 0.00 61 1010.9
20260509095001 58 195 0.0 3.5 0.00 0.00 0.00 61 1010.8
20260509094001 58 224 0.0 1.7 0.00 0.00 0.00 60 1010.8
20260509093022 58 180 0.9 3.5 0.00 0.00 0.00 60 1010.9
20260509092001 58 119 0.9 3.5 0.00 0.00 0.00 61 1011.1
20260509091022 57 165 0.9 5.2 0.00 0.00 0.00 61 1011.1
20260509090043 57 161 0.9 4.3 0.00 0.00 0.00 61 1011.3
20260509085022 57 157 0.9 5.2 0.00 0.00 0.00 61 1011.2
20260509084002 57 170 0.9 4.3 0.00 0.00 0.00 62 1011.4
20260509083001 56 109 0.0 2.6 0.00 0.00 0.00 63 1011.4
20260509082001 56 151 0.9 2.6 0.00 0.00 0.00 63 1011.5
20260509081001 56 127 0.0 4.3 0.00 0.00 0.00 63 1011.6
20260509080022 56 168 0.0 2.6 0.00 0.00 0.00 64 1011.7
20260509075023 56 160 0.9 4.3 0.00 0.00 0.00 64 1011.9
20260509074022 56 145 0.0 4.3 0.00 0.00 0.00 64 1011.8
20260509073022 56 120 0.9 2.6 0.00 0.00 0.00 63 1011.9
20260509072022 57 122 0.9 3.5 0.00 0.00 0.00 63 1012.0
20260509071022 57 106 0.9 2.6 0.00 0.00 0.00 62 1011.8
20260509070104 57 122 0.9 4.3 0.00 0.00 0.00 61 1011.7
20260509065001 57 140 0.0 1.7 0.00 0.00 0.00 60 1011.7
20260509064001 57 147 0.9 5.2 0.00 0.00 0.00 60 1011.8
20260509063022 58 143 0.9 6.1 0.00 0.00 0.00 59 1011.9
20260509062022 58 157 0.0 1.7 0.00 0.00 0.00 59 1012.1
20260509061001 58 157 0.0 1.7 0.00 0.00 0.00 58 1012.1
20260509060022 58 137 0.9 4.3 0.00 0.00 0.00 57 1012.1
20260509055001 58 145 0.0 3.5 0.00 0.00 0.00 58 1012.2
20260509054001 58 147 0.9 2.6 0.00 0.00 0.00 56 1012.2
20260509053001 58 156 0.0 4.3 0.00 0.00 0.00 56 1012.2
20260509052001 59 159 0.9 4.3 0.00 0.00 0.00 56 1012.2
20260509051001 59 150 0.9 3.5 0.00 0.00 0.00 55 1012.3
20260509050001 59 152 0.9 2.6 0.00 0.00 0.00 54 1012.2
20260509045104 60 172 0.9 4.3 0.00 0.00 0.00 54 1012.1
20260509044022 60 181 0.0 1.7 0.00 0.00 0.00 53 1012.1
20260509043045 60 158 0.0 2.6 0.00 0.00 0.00 53 1012.1
20260509042001 60 158 0.9 2.6 0.00 0.00 0.00 53 1012.1
20260509041001 59 154 0.9 5.2 0.00 0.00 0.00 53 1012.2
20260509040001 59 168 0.9 6.1 0.00 0.00 0.00 54 1012.2
20260509035001 59 158 0.9 3.5 0.00 0.00 0.00 55 1012.3
20260509034022 58 173 0.9 4.3 0.00 0.00 0.00 55 1012.3
20260509033043 58 184 0.9 2.6 0.00 0.00 0.00 56 1012.3
20260509032001 58 150 0.9 3.5 0.00 0.00 0.00 57 1012.3
20260509031023 58 119 0.0 3.5 0.00 0.00 0.00 58 1012.5
20260509030001 58 125 0.0 2.6 0.00 0.00 0.00 58 1012.6
20260509025023 58 139 0.0 1.7 0.00 0.00 0.00 57 1012.6
20260509024045 59 135 0.0 0.9 0.00 0.00 0.00 57 1012.6
20260509023001 59 135 0.0 0.9 0.00 0.00 0.00 57 1012.5
20260509022044 60 0 0.0 0.0 0.00 0.00 0.00 56 1012.5
20260509021024 60 0 0.0 0.0 0.00 0.00 0.00 55 1012.4
20260509020002 60 94 0.0 1.7 0.00 0.00 0.00 55 1012.3
20260509015001 60 138 0.0 2.6 0.00 0.00 0.00 55 1012.3
20260509014023 60 162 0.0 0.9 0.00 0.00 0.00 54 1012.2
20260509013024 61 119 0.0 0.9 0.00 0.00 0.00 54 1012.2
20260509012003 61 112 0.0 0.9 0.00 0.00 0.00 53 1012.3
20260509011023 62 104 0.0 1.7 0.00 0.00 0.00 53 1012.3
20260509010001 62 105 0.0 2.6 0.00 0.00 0.00 53 1012.2
20260509005023 63 0 0.0 0.0 0.00 0.00 0.00 52 1012.2
20260509004002 64 126 0.0 0.9 0.00 0.00 0.00 50 1012.1
20260509003002 65 121 0.0 0.9 0.00 0.00 0.00 48 1012.0
20260509002023 66 121 0.0 0.9 0.00 0.00 0.00 47 1012.0
20260509001002 66 116 0.0 1.7 0.00 0.00 0.00 46 1011.8
20260509000044 66 113 0.0 1.7 0.00 0.00 0.00 45 1011.7
20260508235001 67 168 0.0 3.5 0.00 0.00 0.00 45 1011.6
20260508234002 67 181 0.9 2.6 0.00 0.00 0.00 45 1011.6
20260508233002 67 159 0.9 4.3 0.00 0.00 0.00 45 1011.6
20260508232105 67 157 0.9 4.3 0.00 0.00 0.00 45 1011.6
20260508231002 68 125 0.9 3.5 0.00 0.00 0.00 45 1011.5
20260508230002 68 155 0.9 4.3 0.00 0.00 0.00 44 1011.5
20260508225023 69 138 0.9 4.3 0.00 0.00 0.00 43 1011.2
20260508224044 69 126 0.9 5.2 0.00 0.00 0.00 42 1011.2
20260508223002 70 145 1.7 4.3 0.00 0.00 0.00 42 1011.4
20260508222044 70 159 0.0 1.7 0.00 0.00 0.00 40 1011.3
20260508221044 70 153 0.0 2.6 0.00 0.00 0.00 41 1011.3
20260508220023 70 176 0.9 2.6 0.00 0.00 0.00 38 1011.3
20260508215002 70 160 0.9 5.2 0.00 0.00 0.00 37 1011.3
20260508214002 71 164 0.9 4.3 0.00 0.00 0.00 37 1011.3
20260508213002 70 155 1.7 7.0 0.00 0.00 0.00 39 1011.4
20260508212002 71 161 1.7 5.2 0.00 0.00 0.00 39 1011.5
20260508211023 71 139 0.9 4.3 0.00 0.00 0.00 35 1011.3
20260508210023 71 163 1.7 7.0 0.00 0.00 0.00 35 1011.2
20260508205002 71 143 0.9 6.1 0.00 0.00 0.00 35 1011.3
20260508204002 72 168 0.9 4.3 0.00 0.00 0.00 36 1011.6
20260508203003 72 122 0.9 4.3 0.00 0.00 0.00 35 1011.7
20260508202044 72 153 1.7 5.2 0.00 0.00 0.00 35 1011.7
20260508201002 72 152 0.9 6.1 0.00 0.00 0.00 39 1011.8
20260508200002 72 148 1.7 6.1 0.00 0.00 0.00 35 1011.8
20260508195002 72 164 1.7 6.1 0.00 0.00 0.00 39 1012.0
20260508194023 72 146 0.9 4.3 0.00 0.00 0.00 34 1012.2
20260508193023 72 143 1.7 5.2 0.00 0.00 0.00 35 1012.3
20260508192023 72 201 1.7 8.7 0.00 0.00 0.00 36 1012.6
20260508191002 72 124 0.9 5.2 0.00 0.00 0.00 45 1012.7
20260508190023 72 150 0.9 5.2 0.00 0.00 0.00 37 1012.9
20260508185023 71 230 0.9 3.5 0.00 0.00 0.00 43 1013.0
20260508184044 71 164 0.9 4.3 0.00 0.00 0.00 38 1013.2
20260508183023 71 127 0.9 6.1 0.00 0.00 0.00 37 1013.6
20260508182002 71 162 0.9 4.3 0.00 0.00 0.00 36 1013.5
20260508181002 73 171 0.9 7.8 0.00 0.00 0.00 36 1013.6
20260508180023 72 147 1.7 7.8 0.00 0.00 0.00 35 1013.7
20260508175023 71 86 1.7 7.0 0.00 0.00 0.00 41 1013.8
20260508174105 70 120 0.9 7.8 0.00 0.00 0.00 37 1013.8
20260508173023 71 42 1.7 8.7 0.00 0.00 0.00 41 1014.0
20260508172044 70 52 1.7 7.0 0.00 0.00 0.00 39 1014.2
20260508171023 70 143 1.7 6.1 0.00 0.00 0.00 40 1014.2
20260508170004 70 91 1.7 6.1 0.00 0.00 0.00 37 1014.2
20260508165002 70 102 1.7 8.7 0.00 0.00 0.00 40 1014.2
20260508164023 70 41 1.7 5.2 0.00 0.00 0.00 37 1014.5
20260508163002 71 185 0.9 7.8 0.00 0.00 0.00 38 1014.7
20260508162003 70 160 1.7 7.0 0.00 0.00 0.00 38 1014.8
20260508161002 69 68 1.7 7.0 0.00 0.00 0.00 41 1015.0